Weather History for Cherry Point, NC

Change the Weather History Date:

Wednesday, May 22, 2013

  Actual Average Record
Temperature  
Mean Temperature 76 °F -  
Max Temperature 82 °F 79 °F 90 °F (2004)
Min Temperature 70 °F 58 °F 48 °F (2005)
Cooling Degree Days 11    
Growing Degree Days 26 (Base 50)    
Moisture  
Dew Point 67 °F    
Average Humidity 74    
Maximum Humidity 90    
Minimum Humidity 58    
Precipitation  
Precipitation 0.00 in - - ()
Sea Level Pressure  
Sea Level Pressure 30.04 in    
Wind  
Wind Speed 7 mph ()    
Max Wind Speed 15 mph    
Max Gust Speed 24 mph    
Visibility 9.9 miles    
Events      
Averages and records for this station are not official NWS values.
T = Trace of Precipitation, MM = Missing Value Source: Averaged Metar Reports

Daily Weather History Graph

Daily Weather History Graph

Search for Another Location

Airport:

Trip Planner

Search our weather history database for the weather conditions in past years. The results will help you decide how hot, cold, wet, or windy it might be!

Date:

Astronomy

May. 22, 2013 Rise Set
Actual Time 5:59 AM EDT 8:09 PM EDT
Civil Twilight 5:30 AM EDT 8:38 PM EDT
Nautical Twilight 4:56 AM EDT 9:12 PM EDT
Astronomical Twilight 4:18 AM EDT 9:50 PM EDT
Moon 5:34 PM EDT (5/22) 3:55 AM EDT (5/22)
Length of Visible Light 15h 07m
Length of Day
14h 10m
Waxing Gibbous, 91% of the Moon is Illuminated
May 22
Waxing Gibbous
May 25
Full
May 31
Last Quarter
Jun 8
New
Jun 16
First Quarter

Hourly Weather History & Observations

Time (EDT) Temp. Heat Index Dew Point Humidity Pressure Visibility Wind Dir Wind Speed Gust Speed Precip Events Conditions
12:54 AM 71.1 °F - 66.9 °F 87% 30.05 in 10.0 mi SSW 4.6 mph - N/A   Clear
1:54 AM 72.0 °F - 66.9 °F 84% 30.03 in 10.0 mi SSW 5.8 mph - N/A   Clear
2:54 AM 71.1 °F - 66.9 °F 87% 30.04 in 10.0 mi SSW 6.9 mph - N/A   Clear
3:54 AM 70.0 °F - 66.9 °F 90% 30.04 in 10.0 mi SSW 3.5 mph - N/A   Mostly Cloudy
4:54 AM 71.1 °F - 68.0 °F 90% 30.04 in 10.0 mi SSW 3.5 mph - N/A   Overcast
5:54 AM 71.1 °F - 68.0 °F 90% 30.03 in 10.0 mi SSW 6.9 mph - N/A   Scattered Clouds
6:54 AM 72.0 °F - 68.0 °F 87% 30.04 in 8.0 mi South 4.6 mph - N/A   Partly Cloudy
7:54 AM 73.0 °F - 68.0 °F 84% 30.05 in 10.0 mi SW 5.8 mph - N/A   Clear
8:54 AM 75.0 °F - 68.0 °F 79% 30.06 in 10.0 mi SW 8.1 mph - N/A   Scattered Clouds
9:29 AM 77.0 °F - 69.8 °F 78% 30.06 in 10.0 mi SSW 5.8 mph - N/A   Mostly Cloudy
9:54 AM 78.1 °F - 66.9 °F 68% 30.06 in 10.0 mi SSW 9.2 mph - N/A   Mostly Cloudy
10:01 AM 78.8 °F - 66.2 °F 65% 30.07 in 10.0 mi SSW 11.5 mph - N/A   Mostly Cloudy
10:22 AM 80.6 °F 83.2 °F 68.0 °F 65% 30.07 in 10.0 mi SW 9.2 mph - N/A   Mostly Cloudy
10:54 AM 80.1 °F 82.3 °F 66.9 °F 64% 30.06 in 10.0 mi SW 11.5 mph - N/A   Mostly Cloudy
11:54 AM 81.0 °F 83.0 °F 66.0 °F 60% 30.06 in 10.0 mi SW 15.0 mph - N/A   Mostly Cloudy
12:54 PM 82.0 °F 84.5 °F 66.9 °F 60% 30.05 in 10.0 mi South 12.7 mph 19.6 mph N/A   Mostly Cloudy
1:01 PM 82.4 °F 84.6 °F 66.2 °F 58% 30.06 in 10.0 mi South 10.4 mph 19.6 mph N/A   Mostly Cloudy
1:52 PM 80.6 °F 82.7 °F 66.2 °F 61% 30.05 in 10.0 mi South 13.8 mph 24.2 mph N/A   Mostly Cloudy
1:54 PM 80.1 °F 82.3 °F 66.9 °F 64% 30.04 in 10.0 mi South 12.7 mph 24.2 mph N/A   Mostly Cloudy
2:01 PM 80.6 °F 82.7 °F 66.2 °F 61% 30.05 in 10.0 mi South 15.0 mph 24.2 mph N/A   Mostly Cloudy
2:54 PM 81.0 °F 83.8 °F 68.0 °F 65% 30.03 in 10.0 mi South 11.5 mph 21.9 mph N/A   Mostly Cloudy
3:54 PM 82.0 °F 84.5 °F 66.9 °F 60% 30.02 in 10.0 mi SSW 10.4 mph 21.9 mph N/A   Mostly Cloudy
4:54 PM 80.1 °F 82.3 °F 66.9 °F 64% 30.00 in 10.0 mi SSW 9.2 mph 23.0 mph N/A   Mostly Cloudy
5:01 PM 80.6 °F 82.7 °F 66.2 °F 61% 30.01 in 10.0 mi South 13.8 mph 21.9 mph N/A   Mostly Cloudy
5:12 PM 78.8 °F - 66.2 °F 65% 30.01 in 10.0 mi South 12.7 mph 23.0 mph N/A   Mostly Cloudy
5:54 PM 79.0 °F - 66.0 °F 64% 30.00 in 10.0 mi South 15.0 mph 24.2 mph N/A   Mostly Cloudy
6:54 PM 75.9 °F - 66.9 °F 74% 30.00 in 10.0 mi SSW 9.2 mph 23.0 mph N/A   Mostly Cloudy
7:54 PM 75.0 °F - 66.9 °F 76% 30.00 in 10.0 mi SSW 5.8 mph - N/A   Mostly Cloudy
8:54 PM 73.0 °F - 66.9 °F 81% 30.00 in 10.0 mi Variable 5.8 mph - N/A   Scattered Clouds
9:54 PM 72.0 °F - 66.9 °F 84% 30.02 in 10.0 mi South 3.5 mph - N/A   Scattered Clouds
10:54 PM 71.1 °F - 68.0 °F 90% 30.03 in 10.0 mi SSE 4.6 mph - N/A   Clear
11:54 PM 71.1 °F - 68.0 °F 90% 30.03 in 10.0 mi Calm Calm - N/A   Scattered Clouds